Location: Caltech
(34.1382°N, 118.1253°W)
Time: 15:27:07
(UTC-07:00)

Cosmos 44 Rocket - Visible Passes

Search period start: 02 August 2015 00:00
Search period end: 12 August 2015 00:00
Orbit: 651 x 740 km, 65.1° (Epoch: 02 August)

Date Brightness Start Highest point End Pass type
(mag) Time Alt. Az. Time Alt. Az. Time Alt. Az.
02 Aug 4.8 22:41:19 10° N 22:44:51 29° NNE 22:44:51 29° NNE visible
03 Aug 6.0 00:22:57 10° NW 00:23:35 13° WNW 00:23:35 13° WNW visible
03 Aug 5.5 21:43:18 10° NNE 21:45:46 14° NE 21:46:56 13° ENE visible
03 Aug 4.9 23:22:54 10° NNW 23:25:39 33° NW 23:25:39 33° NW visible
04 Aug 4.3 22:23:39 10° NNW 22:27:46 39° NE 22:27:46 39° NE visible
05 Aug 6.1 00:05:57 10° WNW 00:06:29 12° WNW 00:06:29 12° WNW visible
05 Aug 5.2 21:25:12 10° N 21:28:31 18° NE 21:29:55 16° ENE visible
05 Aug 4.7 23:05:30 10° NW 23:08:39 36° WNW 23:08:39 36° WNW visible
06 Aug 3.6 22:06:03 10° NNW 22:10:51 55° NE 22:10:51 55° NE visible
06 Aug 6.1 23:49:12 10° WNW 23:49:35 11° WNW 23:49:35 11° WNW visible
07 Aug 4.9 21:07:18 10° N 21:11:13 23° NE 21:13:07 19° E visible
07 Aug 4.6 22:48:12 10° NW 22:51:51 36° W 22:51:51 36° W visible
08 Aug 3.3 21:48:30 10° NNW 21:53:34 75° ENE 21:54:10 65° ESE visible
09 Aug 4.5 20:49:31 10° N 20:53:53 29° NE 20:56:32 19° E visible
09 Aug 4.8 22:31:00 10° NW 22:35:17 30° WSW 22:35:17 30° WSW visible
10 Aug 3.4 21:31:02 10° NNW 21:36:06 82° WSW 21:37:43 44° SSE visible
11 Aug 4.1 20:31:50 10° NNW 20:36:32 38° NE 20:40:14 16° ESE visible
11 Aug 5.2 22:13:56 10° WNW 22:17:54 23° WSW 22:18:59 21° SW visible
